NIMBUS 2 DEB

Satellite information

Favourite Embed

Satellite Type and Status

DEBRISIN ORBIT

Key statistics

Satellite NIMBUS 2 DEB at a glance.

Uptime

21543

Days in orbit

Revolutions

≈ 13.4

Per day

Orbit

SSO

Sun Synchronous Orbit

Inclination

100.1

Latest

Satellite identification and parameters

Extended collection of information and parameters for NIMBUS 2 DEB.

Object identification

Identified? True

Debris? True

Object name: NIMBUS 2 DEB

International designator: 1966-040CD

Object number (NORAD): 59974

Object ID (CCSDS): 59974

Country: UNITED STATES OF AMERICA (US)

Current information (Y/N): Y

RCS size: SMALL

Orbital parameters

Period: 107.275 minutes

Inclination: 100.1269 deg

SMA: 7478.708 km

Apoapsis: 1134.79 km

Periapsis: 1066.356 km

RAAN: 282.7365 deg

Eccentricy: 0.0045752

Argument of periapsis: 84.3566 deg

Mean anomaly: 276.2777 deg

Mean motion: 13.42341138 rev/day

Mean motion (dot): 0.00002141 rev/day2

B* drag term: 0.0038501 1/REarth

Two-line elements (TLE)

Creation date: May 8, 2025, 3:01 a.m.

Reference frame: TEME

Reference center: EARTH

Epoch: May 7, 2025, 9:12 p.m. UTC

TLE line 0: 0 NIMBUS 2 DEB

TLE line 1: 1 59974U 66040CD 25127.88382329 .00002141 00000-0 38501-2 0 9997

TLE line 2: 2 59974 100.1269 282.7365 0045752 84.3566 276.2777 13.42341138403378

Live tracking on map

Real-time ground track for satellite NIMBUS 2 DEB.

In-orbit conjunctions

A list of the most updated potential collisions computed for object NIMBUS 2 DEB.

Target Orbit TCA Probability of collision Miss distance Type
DELTA 4 R/B MEO 2024-10-23 10:59:15 0.000250887 104.0 (m) ROCKET BODY
FENGYUN 1C DEB SSO 2024-06-14 05:45:02 0.0004596649 418.0 (m) DEBRIS

Associated space launch

Nimbus 2, the second in a series of second-generation meteorological research-and-development satellites, added an additional medium-resolution infrared radiometer (MRIR) compared to Nimbus 1.

NIMBUS 2 DEB was lifted into orbit during the mission ‘Thor SLV-2A Agena B | Nimbus 2’, on board a Thor SLV-2A Agena B space rocket.

The launch took place on May 15, 1966, 7:55 a.m. from Space Launch Complex 2E.

For more information about the launch, click the button.

Launch to space Thor SLV-2A Agena B | Nimbus 2
Thor SLV-2A Agena B | Nimbus 2

Agency: N/A

Status: Launch Successful

Launch date: May 15, 1966, 7:55 a.m. UTC

Rocket: Thor SLV-2A Agena B

Launch pad: Space Launch Complex 2E

Location: Vandenberg SFB, CA, USA

...

Latest news about this satellite

There are no fresh news available about this satellite. Check back as we update our databases every day.


Newsletter sign-up

Weekly statistics, charts and insights to help you stay on top of the space industry.